Humidity-temperature Sensor

Selected Measurement Type: Relative Humidity

 
Relative Humidity [%]     6 entries per hour
Showing data from 7/5/2020 (00:00:00 Z) to 6/28/2020 (13:00:00 Z)
Previous Next [ Day | 3-Days | 7-Days ]
First Last
Prev [ Day | 3-Days | 7-Days ] Next
First Last

Start Time:     :
End Time:     :     
Time (in GMT) :00 :50 :40 :30 :20 :10
Previous Next [ Day | 3-Days | 7-Days ]
First Last
Prev [ Day | 3-Days | 7-Days ] Next
First Last


123 => good data
MM => data is determined as missing
-- => data not received/configured
Back to Top Back to Top
7/5/2020 00:00 to 23:10 86.30 87.35 86.92 85.83 86.20 89.03
7/4/2020 23:00 to 22:10 88.60 89.05 88.00 88.56 87.86 87.61
7/4/2020 22:00 to 21:10 89.07 86.71 87.10 86.83 87.31 86.69
7/4/2020 21:00 to 20:10 86.73 86.63 87.84 86.46 86.22 86.46
7/4/2020 20:00 to 19:10 87.78 88.09 88.50 85.95 86.55 87.70
7/4/2020 19:00 to 18:10 87.37 88.05 88.72 88.21 88.27 84.31
7/4/2020 18:00 to 17:10 85.11 85.68 85.74 85.85 85.74 86.26
7/4/2020 17:00 to 16:10 87.08 88.23 89.09 89.05 89.63 88.48
7/4/2020 16:00 to 15:10 87.63 88.54 89.85 86.87 87.66 89.05
7/4/2020 15:00 to 14:10 91.68 91.37 91.25 90.37 89.16 89.05
7/4/2020 14:00 to 13:10 88.31 89.03 89.18 88.58 89.92 91.25
7/4/2020 13:00 to 12:10 91.85 92.03 94.05 95.05 95.75 95.53
7/4/2020 12:00 to 11:10 95.67 95.73 95.92 95.75 94.48 89.26
7/4/2020 11:00 to 10:10 86.53 86.61 87.35 87.86 89.57 90.51
7/4/2020 10:00 to 9:10 91.97 88.99 88.81 89.75 91.27 92.16
7/4/2020 09:00 to 8:10 93.70 94.74 95.36 95.55 95.01 94.21
7/4/2020 08:00 to 7:10 91.44 90.61 90.41 92.24 93.12 92.94
7/4/2020 07:00 to 6:10 94.15 94.03 92.59 91.44 91.05 91.23
7/4/2020 06:00 to 5:10 91.13 91.29 91.27 91.95 91.74 91.17
7/4/2020 05:00 to 4:10 89.81 84.33 85.46 86.63 88.19 87.04
7/4/2020 04:00 to 3:10 83.32 82.83 83.30 82.19 81.86 82.52
7/4/2020 03:00 to 2:10 81.78 82.76 81.26 81.22 80.77 81.53
7/4/2020 02:00 to 1:10 81.49 80.52 81.72 82.25 81.24 80.24
7/4/2020 01:00 to 0:10 79.97 79.66 80.38 80.67 79.93 79.17
7/4/2020 00:00 to 23:10 79.79 81.04 80.98 79.76 79.19 78.45
7/3/2020 23:00 to 22:10 79.19 77.18 78.80 79.68 79.11 79.42
7/3/2020 22:00 to 21:10 77.96 78.26 79.56 77.89 78.74 78.29
7/3/2020 21:00 to 20:10 79.60 78.59 79.66 79.54 81.31 80.69
7/3/2020 20:00 to 19:10 79.72 79.27 80.44 79.97 79.72 79.79
7/3/2020 19:00 to 18:10 79.62 80.73 81.00 80.94 81.55 82.46
7/3/2020 18:00 to 17:10 81.12 80.94 80.36 80.89 81.61 81.06
7/3/2020 17:00 to 16:10 81.26 80.52 80.09 79.66 80.13 80.22
7/3/2020 16:00 to 15:10 81.80 80.73 82.31 82.02 82.44 83.22
7/3/2020 15:00 to 14:10 82.99 83.01 83.22 83.69 84.68 85.07
7/3/2020 14:00 to 13:10 83.79 85.35 84.90 84.96 84.39 83.28
7/3/2020 13:00 to 12:10 84.24 84.53 83.69 86.05 86.09 85.89
7/3/2020 12:00 to 11:10 85.48 86.32 86.87 83.38 84.59 85.91
7/3/2020 11:00 to 10:10 85.05 86.50 86.42 87.63 86.75 84.90
7/3/2020 10:00 to 9:10 84.00 86.05 86.77 87.29 86.22 85.62
7/3/2020 09:00 to 8:10 80.77 81.00 81.70 80.69 81.35 81.80
7/3/2020 08:00 to 7:10 82.33 81.47 81.49 83.05 81.68 80.94
7/3/2020 07:00 to 6:10 82.85 82.74 83.09 81.33 86.46 88.60
7/3/2020 06:00 to 5:10 89.59 88.66 87.08 87.98 89.03 88.42
7/3/2020 05:00 to 4:10 85.46 81.04 80.89 80.07 80.01 80.73
7/3/2020 04:00 to 3:10 81.26 81.37 80.28 80.81 80.32 80.52
7/3/2020 03:00 to 2:10 81.53 82.11 82.44 81.94 81.63 81.55
7/3/2020 02:00 to 1:10 82.00 81.61 81.35 81.59 82.25 82.25
7/3/2020 01:00 to 0:10 82.81 81.66 82.56 81.80 84.80 83.44
7/3/2020 00:00 to 23:10 84.02 83.07 81.06 80.77 79.25 78.04
7/2/2020 23:00 to 22:10 78.90 79.31 80.01 80.57 80.69 80.55
7/2/2020 22:00 to 21:10 80.83 82.37 79.23 78.92 79.62 81.26
7/2/2020 21:00 to 20:10 81.51 81.98 81.59 80.24 79.37 79.79
7/2/2020 20:00 to 19:10 81.18 81.02 80.38 82.09 81.76 82.42
7/2/2020 19:00 to 18:10 81.29 81.63 82.97 85.79 91.37 84.29
7/2/2020 18:00 to 17:10 81.35 80.01 81.61 83.36 80.57 80.81
7/2/2020 17:00 to 16:10 81.35 83.50 81.63 82.89 83.09 81.98
7/2/2020 16:00 to 15:10 80.36 80.09 80.67 81.14 81.90 80.94
7/2/2020 15:00 to 14:10 81.24 81.51 81.96 81.90 82.68 82.07
7/2/2020 14:00 to 13:10 80.83 79.91 79.52 81.10 80.94 80.83
7/2/2020 13:00 to 12:10 79.81 83.05 83.61 83.34 84.82 84.72
7/2/2020 12:00 to 11:10 83.69 81.66 82.74 81.53 82.79 80.32
7/2/2020 11:00 to 10:10 82.44 82.87 82.79 82.27 84.00 84.20
7/2/2020 10:00 to 9:10 81.33 79.60 79.56 81.16 81.88 80.92
7/2/2020 09:00 to 8:10 80.03 79.74 77.44 77.98 79.81 79.70
7/2/2020 08:00 to 7:10 79.66 79.05 81.20 80.83 81.74 81.74
7/2/2020 07:00 to 6:10 81.57 80.38 81.14 80.92 79.46 79.21
7/2/2020 06:00 to 5:10 77.57 79.79 78.12 79.13 80.34 80.65
7/2/2020 05:00 to 4:10 79.62 80.40 78.35 79.91 81.18 80.09
7/2/2020 04:00 to 3:10 80.11 79.85 79.85 79.54 79.44 79.56
7/2/2020 03:00 to 2:10 80.73 81.00 81.06 80.57 81.98 81.43
7/2/2020 02:00 to 1:10 81.78 81.94 81.78 82.23 82.31 81.55
7/2/2020 01:00 to 0:10 80.63 84.66 84.18 83.65 82.00 81.74
7/2/2020 00:00 to 23:10 81.06 80.61 82.85 81.84 82.42 82.87
7/1/2020 23:00 to 22:10 82.79 83.57 83.73 83.63 83.96 81.49
7/1/2020 22:00 to 21:10 80.69 81.57 85.79 83.36 84.70 81.96
7/1/2020 21:00 to 20:10 83.69 80.79 81.45 81.02 81.66 85.46
7/1/2020 20:00 to 19:10 83.42 81.12 82.99 85.21 87.88 87.66
7/1/2020 19:00 to 18:10 91.54 84.78 87.82 82.33 83.69 84.10
7/1/2020 18:00 to 17:10 84.72 88.46 82.72 83.71 88.44 87.59
7/1/2020 17:00 to 16:10 86.28 83.11 82.72 80.75 82.83 83.11
7/1/2020 16:00 to 15:10 80.03 81.68 82.46 81.43 80.20 81.10
7/1/2020 15:00 to 14:10 82.25 81.00 85.07 83.79 82.72 85.33
7/1/2020 14:00 to 13:10 82.33 84.02 84.04 83.57 83.65 82.58
7/1/2020 13:00 to 12:10 82.35 85.39 84.31 84.22 84.68 83.11
7/1/2020 12:00 to 11:10 82.42 84.20 85.79 87.33 86.79 89.87
7/1/2020 11:00 to 10:10 90.29 82.48 82.60 85.35 87.84 84.47
7/1/2020 10:00 to 9:10 84.61 87.14 88.21 87.41 85.97 87.31
7/1/2020 09:00 to 8:10 80.40 80.83 81.72 84.57 83.75 82.44
7/1/2020 08:00 to 7:10 83.46 83.65 82.85 84.16 83.81 84.55
7/1/2020 07:00 to 6:10 84.78 84.98 85.44 85.97 83.98 83.13
7/1/2020 06:00 to 5:10 82.70 81.12 83.36 82.87 83.26 82.15
7/1/2020 05:00 to 4:10 82.42 87.18 84.94 84.51 85.64 88.35
7/1/2020 04:00 to 3:10 85.31 86.67 90.24 86.18 85.17 85.93
7/1/2020 03:00 to 2:10 86.69 87.74 87.74 88.46 88.74 90.47
7/1/2020 02:00 to 1:10 89.11 88.58 85.54 86.81 85.42 84.51
7/1/2020 01:00 to 0:10 83.50 83.65 85.00 85.44 86.59 84.57
7/1/2020 00:00 to 23:10 84.43 85.29 84.39 83.34 82.37 84.04
6/30/2020 23:00 to 22:10 84.16 84.24 84.43 82.83 82.91 83.50
6/30/2020 22:00 to 21:10 84.08 84.94 84.12 86.36 83.71 84.66
6/30/2020 21:00 to 20:10 84.20 84.57 83.61 84.70 82.48 82.21
6/30/2020 20:00 to 19:10 83.01 83.61 81.47 81.82 84.72 83.38
6/30/2020 19:00 to 18:10 85.60 85.93 86.32 86.24 86.03 87.53
6/30/2020 18:00 to 17:10 87.18 87.33 82.62 82.66 84.35 84.12
6/30/2020 17:00 to 16:10 81.76 82.27 79.99 82.25 82.19 82.91
6/30/2020 16:00 to 15:10 83.38 83.63 86.69 88.03 83.57 82.83
6/30/2020 15:00 to 14:10 82.11 84.31 83.57 84.76 84.70 82.11
6/30/2020 14:00 to 13:10 82.31 83.20 84.18 82.68 82.76 83.87
6/30/2020 13:00 to 12:10 84.72 87.20 87.57 86.57 84.08 84.88
6/30/2020 12:00 to 11:10 86.75 85.91 87.41 88.40 87.59 88.13
6/30/2020 11:00 to 10:10 88.72 87.12 86.42 85.46 83.85 85.29
6/30/2020 10:00 to 9:10 87.00 89.24 89.28 90.41 89.85 91.11
6/30/2020 09:00 to 8:10 87.96 90.47 90.47 84.43 85.29 83.50
6/30/2020 08:00 to 7:10 83.50 85.76 90.43 93.12 93.80 90.29
6/30/2020 07:00 to 6:10 85.83 86.05 85.19 84.96 83.55 83.20
6/30/2020 06:00 to 5:10 83.63 86.18 84.96 84.72 84.20 84.31
6/30/2020 05:00 to 4:10 85.91 85.09 85.81 86.42 84.33 85.72
6/30/2020 04:00 to 3:10 84.68 85.39 85.42 85.19 85.33 84.68
6/30/2020 03:00 to 2:10 83.30 85.42 85.74 87.06 86.59 86.67
6/30/2020 02:00 to 1:10 86.46 86.09 85.89 86.63 89.71 87.51
6/30/2020 01:00 to 0:10 85.97 85.19 84.96 84.76 85.19 85.48
6/30/2020 00:00 to 23:10 86.59 88.60 88.64 86.53 88.56 88.19
6/29/2020 23:00 to 22:10 85.15 87.43 88.79 89.36 85.11 85.00
6/29/2020 22:00 to 21:10 86.01 84.51 85.50 85.76 87.18 86.81
6/29/2020 21:00 to 20:10 88.05 89.18 90.68 91.09 91.00 90.49
6/29/2020 20:00 to 19:10 89.26 90.57 91.44 93.04 93.86 95.53
6/29/2020 19:00 to 18:10 96.04 96.61 96.94 97.48 97.79 97.89
6/29/2020 18:00 to 17:10 98.01 98.22 98.24 98.28 96.41 94.09
6/29/2020 17:00 to 16:10 87.66 88.21 91.50 93.35 93.51 93.45
6/29/2020 16:00 to 15:10 91.81 89.63 93.66 91.89 91.17 92.05
6/29/2020 15:00 to 14:10 90.37 90.47 89.46 88.85 91.72 93.59
6/29/2020 14:00 to 13:10 95.48 96.14 95.03 94.54 92.87 91.72
6/29/2020 13:00 to 12:10 90.88 91.97 91.91 92.73 94.09 95.07
6/29/2020 12:00 to 11:10 95.53 95.26 95.94 96.64 97.15 96.90
6/29/2020 11:00 to 10:10 97.68 98.11 97.89 96.20 96.57 96.55
6/29/2020 10:00 to 9:10 96.72 96.43 97.38 96.76 95.98 93.68
6/29/2020 09:00 to 8:10 92.24 93.31 93.90 94.68 96.45 96.33
6/29/2020 08:00 to 7:10 95.34 93.78 94.05 94.05 94.70 96.51
6/29/2020 07:00 to 6:10 97.89 97.77 97.40 97.11 97.40 97.25
6/29/2020 06:00 to 5:10 95.94 96.06 96.10 96.12 91.52 90.55
6/29/2020 05:00 to 4:10 89.32 87.92 90.45 89.57 88.79 88.00
6/29/2020 04:00 to 3:10 88.83 92.59 92.63 90.29 90.45 90.53
6/29/2020 03:00 to 2:10 89.28 88.17 87.76 87.08 88.25 89.09
6/29/2020 02:00 to 1:10 89.30 89.96 90.18 90.43 90.84 91.31
6/29/2020 01:00 to 0:10 91.03 91.11 91.25 91.17 91.99 91.74
6/29/2020 00:00 to 23:10 92.24 91.52 91.33 91.56 91.54 92.14
6/28/2020 23:00 to 22:10 91.60 92.92 94.25 92.46 92.81 91.79
6/28/2020 22:00 to 21:10 92.03 91.97 91.70 92.57 92.28 93.51
6/28/2020 21:00 to 20:10 94.62 95.01 94.44 93.82 93.84 92.94
6/28/2020 20:00 to 19:10 93.76 94.58 95.32 94.56 88.52 89.53
6/28/2020 19:00 to 18:10 89.69 90.96 91.23 90.68 89.77 92.30
6/28/2020 18:00 to 17:10 90.14 86.79 87.00 87.02 87.59 86.92
6/28/2020 17:00 to 16:10 87.84 88.77 88.74 89.77 89.38 88.64
6/28/2020 16:00 to 15:10 87.33 88.79 88.42 90.57 91.48 92.61
6/28/2020 15:00 to 14:10 92.67 92.44 92.38 91.35 92.24 92.83
6/28/2020 14:00 to 13:10 93.16 92.98 92.65 92.69 92.69 92.09